Knox, IN

4:48 AM CDT on September 24, 2017 (GMT -0500)
Starke County

Weather History for KOXI - September, 2013

Change the Weather History Date:

Saturday, September 21, 2013

  Actual Average (KRCR) Record (KRCR)
Temperature  
Mean Temperature 56 °F -  
Max Temperature 96 °F 73 °F 93 °F (2017)
Min Temperature 46 °F 50 °F 46 °F (2015)
Degree Days  
Heating Degree Days 9    
Growing Degree Days 6 (Base 50)    
Moisture  
Dew Point 49 °F    
Average Humidity 77    
Maximum Humidity 97    
Minimum Humidity 46    
Precipitation  
Precipitation 0.00 in - - ()
Sea Level Pressure  
Sea Level Pressure 29.85 in    
Wind  
Wind Speed 8 mph (NW)    
Max Wind Speed 21 mph    
Max Gust Speed 26 mph    
Visibility 10 miles    
Events      
Averages and records for this station are not official NWS values.
T = Trace of Precipitation, MM = Missing Value Source: NWS Daily Summary

Daily Weather History Graph

Daily Weather History Graph

Search for Another Location

Airport or City:

Trip Planner

Search our weather history database for the weather conditions in past years. The results will help you decide how hot, cold, wet, or windy it might be!

Date:

Astronomy

Sep. 21, 2013 Rise Set
Actual Time 6:33 AM CDT 6:45 PM CDT
Civil Twilight 6:05 AM CDT 7:12 PM CDT
Nautical Twilight 5:33 AM CDT 7:44 PM CDT
Astronomical Twilight 5:00 AM CDT 8:17 PM CDT
Moon 7:53 PM CDT (9/21) 8:53 AM CDT (9/21)
Length of Visible Light 13h 06m
Length of Day
12h 11m
Waning Gibbous, 94% of the Moon is Illuminated
Sep 21
Waning Gibbous
Sep 26
Last Quarter
Oct 4
New
Oct 11
First Quarter
Oct 18
Full

Hourly Weather History & Observations

Time (CDT) Temp. Dew Point Humidity Pressure Visibility Wind Dir Wind Speed Gust Speed Precip Events Conditions
12:15 AM 57.7 °F 54.1 °F 88% 29.82 in 10.0 mi West 4.6 mph - N/A   Clear
12:35 AM 57.2 °F 54.0 °F 89% 29.81 in 10.0 mi West 4.6 mph - N/A   Clear
12:55 AM 57.2 °F 53.8 °F 88% 29.81 in 10.0 mi West 4.6 mph - N/A   Clear
1:15 AM 57.0 °F 53.6 °F 88% 29.81 in 10.0 mi West 4.6 mph - N/A   Clear
1:35 AM 56.5 °F 53.4 °F 89% 29.81 in 10.0 mi West 4.6 mph - N/A   Clear
1:55 AM 55.9 °F 53.2 °F 91% 29.81 in 10.0 mi West 5.8 mph - N/A   Clear
2:15 AM 55.6 °F 53.1 °F 91% 29.80 in 10.0 mi West 5.8 mph - N/A   Clear
2:35 AM 55.2 °F 52.9 °F 92% 29.80 in 10.0 mi West 4.6 mph - N/A   Clear
2:55 AM 54.7 °F 52.7 °F 93% 29.79 in 10.0 mi West 5.8 mph - N/A   Clear
3:15 AM 54.1 °F 52.7 °F 95% 29.79 in 10.0 mi West 5.8 mph - N/A   Clear
3:35 AM 53.8 °F 52.3 °F 95% 29.78 in 10.0 mi West 4.6 mph - N/A   Scattered Clouds
3:55 AM 53.8 °F 52.5 °F 95% 29.78 in 10.0 mi West 5.8 mph - N/A   Scattered Clouds
4:15 AM 54.1 °F 52.9 °F 95% 29.78 in 10.0 mi West 6.9 mph - N/A   Mostly Cloudy
4:35 AM 54.5 °F 53.2 °F 96% 29.78 in 10.0 mi West 5.8 mph - N/A   Overcast
4:55 AM 54.3 °F 53.1 °F 95% 29.78 in 10.0 mi West 8.1 mph - N/A   Scattered Clouds
5:15 AM 53.8 °F 52.7 °F 96% 29.78 in 10.0 mi West 6.9 mph - N/A   Clear
5:35 AM 53.4 °F 52.5 °F 97% 29.78 in 10.0 mi West 6.9 mph - N/A   Clear
5:55 AM 52.9 °F 52.0 °F 97% 29.78 in 10.0 mi West 6.9 mph - N/A   Clear
6:15 AM 52.7 °F 51.8 °F 97% 29.79 in 10.0 mi West 5.8 mph - N/A   Clear
6:35 AM 52.3 °F 51.6 °F 97% 29.80 in 10.0 mi West 5.8 mph - N/A   Clear
6:55 AM 52.0 °F 51.3 °F 97% 29.80 in 10.0 mi West 5.8 mph - N/A   Clear
7:15 AM 52.3 °F 51.6 °F 97% 29.81 in 10.0 mi West 8.1 mph - N/A   Clear
7:35 AM 53.6 °F 52.9 °F 97% 29.81 in 10.0 mi West 6.9 mph - N/A   Clear
7:55 AM 55.8 °F 54.1 °F 94% 29.82 in 10.0 mi West 6.9 mph - N/A   Clear
8:15 AM 57.7 °F 55.2 °F 91% 29.82 in 10.0 mi West 6.9 mph - N/A   Clear
8:35 AM 59.5 °F 55.9 °F 88% 29.82 in 10.0 mi WNW 5.8 mph - N/A   Clear
8:55 AM 61.9 °F 55.0 °F 78% 29.82 in 10.0 mi NNW 15.0 mph 19.6 mph N/A   Clear
9:15 AM 62.8 °F 51.8 °F 67% 29.83 in 10.0 mi NNW 17.3 mph 26.5 mph N/A   Clear
9:35 AM 62.8 °F 51.3 °F 66% 29.83 in 10.0 mi NNW 20.7 mph 24.2 mph N/A   Clear
9:55 AM 64.2 °F 50.9 °F 62% 29.84 in 10.0 mi NNW 15.0 mph 23.0 mph N/A   Scattered Clouds
10:15 AM 64.6 °F 50.4 °F 60% 29.84 in 10.0 mi North 18.4 mph 23.0 mph N/A   Clear
10:35 AM 64.8 °F 48.7 °F 56% 29.84 in 10.0 mi NNW 15.0 mph 23.0 mph N/A   Scattered Clouds
10:55 AM 65.1 °F 48.4 °F 55% 29.85 in 10.0 mi NNW 17.3 mph 20.7 mph N/A   Scattered Clouds
11:15 AM 65.5 °F 47.3 °F 52% 29.85 in 10.0 mi NNW 11.5 mph 23.0 mph N/A   Scattered Clouds
11:35 AM 64.8 °F 47.1 °F 53% 29.85 in 10.0 mi NW 13.8 mph 18.4 mph N/A   Scattered Clouds
11:55 AM 65.8 °F 48.2 °F 53% 29.85 in 10.0 mi NNW 16.1 mph 20.7 mph N/A   Mostly Cloudy
12:15 PM 64.0 °F 48.7 °F 57% 29.86 in 10.0 mi NNW 12.7 mph 23.0 mph N/A   Mostly Cloudy
12:35 PM 65.7 °F 47.3 °F 51% 29.86 in 10.0 mi NW 15.0 mph 21.9 mph N/A   Mostly Cloudy
12:55 PM 66.7 °F 45.1 °F 46% 29.85 in 10.0 mi NW 11.5 mph 21.9 mph N/A   Mostly Cloudy
1:15 PM 66.2 °F 47.1 °F 50% 29.85 in 10.0 mi NW 13.8 mph 19.6 mph N/A   Scattered Clouds
1:35 PM 65.1 °F 45.7 °F 49% 29.85 in 10.0 mi NNW 15.0 mph 18.4 mph N/A   Scattered Clouds
1:55 PM 65.1 °F 45.0 °F 48% 29.86 in 10.0 mi NW 11.5 mph 20.7 mph N/A   Scattered Clouds
2:15 PM 65.8 °F 45.7 °F 48% 29.86 in 10.0 mi NNW 15.0 mph 23.0 mph N/A   Scattered Clouds
2:35 PM 64.8 °F 45.5 °F 50% 29.86 in 10.0 mi NNW 13.8 mph 21.9 mph N/A   Mostly Cloudy
2:55 PM 64.9 °F 45.3 °F 49% 29.86 in 10.0 mi North 15.0 mph 21.9 mph N/A   Scattered Clouds
3:15 PM 64.9 °F 45.3 °F 49% 29.86 in 10.0 mi NW 11.5 mph 18.4 mph N/A   Scattered Clouds
3:35 PM 64.4 °F 45.3 °F 50% 29.86 in 10.0 mi NNW 12.7 mph 21.9 mph N/A   Scattered Clouds
3:55 PM 64.0 °F 45.0 °F 50% 29.86 in 10.0 mi NW 16.1 mph 21.9 mph N/A   Scattered Clouds
4:15 PM 64.6 °F 45.7 °F 50% 29.87 in 10.0 mi NNW 16.1 mph 19.6 mph N/A   Scattered Clouds
4:35 PM 63.7 °F 45.1 °F 51% 29.87 in 10.0 mi NNW 13.8 mph 23.0 mph N/A   Scattered Clouds
4:55 PM 63.1 °F 45.5 °F 53% 29.87 in 10.0 mi North 10.4 mph 18.4 mph N/A   Scattered Clouds
5:15 PM 62.6 °F 46.0 °F 55% 29.88 in 10.0 mi North 10.4 mph - N/A   Scattered Clouds
5:35 PM 61.9 °F 46.4 °F 57% 29.88 in 10.0 mi North 15.0 mph - N/A   Scattered Clouds
5:55 PM 60.8 °F 46.4 °F 59% 29.88 in 10.0 mi North 8.1 mph - N/A   Clear
6:15 PM 59.5 °F 46.6 °F 62% 29.88 in 10.0 mi North 6.9 mph - N/A   Clear
6:35 PM 57.9 °F 46.4 °F 65% 29.88 in 10.0 mi North 6.9 mph - N/A   Clear
6:55 PM 55.8 °F 46.8 °F 72% 29.89 in 10.0 mi North 6.9 mph - N/A   Clear
7:15 PM 54.7 °F 47.1 °F 76% 29.89 in 10.0 mi NNW 5.8 mph - N/A   Clear
7:35 PM 53.8 °F 48.2 °F 81% 29.90 in 10.0 mi NNW 3.5 mph - N/A   Scattered Clouds
7:55 PM 53.1 °F 48.9 °F 86% 29.90 in 10.0 mi NNW 3.5 mph - N/A   Clear
8:15 PM 51.4 °F 48.7 °F 90% 29.90 in 10.0 mi Calm Calm - N/A   Clear
8:35 PM 51.1 °F 48.6 °F 91% 29.90 in 10.0 mi Calm Calm - N/A   Clear
8:55 PM 50.0 °F 47.8 °F 92% 29.90 in 10.0 mi WNW 3.5 mph - N/A   Clear
9:15 PM 49.3 °F 47.7 °F 94% 29.90 in 10.0 mi West 3.5 mph - N/A   Clear
9:35 PM 49.1 °F 47.5 °F 94% 29.91 in 10.0 mi WNW 3.5 mph - N/A   Clear
9:55 PM 48.7 °F 47.3 °F 95% 29.91 in 10.0 mi West 3.5 mph - N/A   Clear
10:15 PM 48.0 °F 46.8 °F 95% 29.92 in 10.0 mi West 3.5 mph - N/A   Clear
10:35 PM 46.9 °F 45.9 °F 96% 29.92 in 10.0 mi Calm Calm - N/A   Clear
10:55 PM 47.3 °F 46.6 °F 97% 29.92 in 10.0 mi Calm Calm - N/A   Mostly Cloudy
11:15 PM 48.2 °F 47.5 °F 97% 29.92 in 10.0 mi Calm Calm - N/A   Mostly Cloudy
11:35 PM 48.4 °F 47.7 °F 97% 29.93 in 10.0 mi Calm Calm - N/A   Clear
11:55 PM 46.8 °F 46.0 °F 97% 29.93 in 10.0 mi WSW 4.6 mph - N/A   Clear